• în Republica Moldova
  • Lista ţărilor
  • Pe 7 zile
  • Temperatura apei
  • Hartă satelitară
  • Meteo pe hartă
  • Widget-uri
  • user-avatar
    Intrare

    Meteo pe oră la Buda-Lyushevskaya

    Astăzi, 20 Ianuarie, Duminică

    Timp Temperatura Precipitaţii Vânt Presiune Umiditate
    00:00 -6°C° 0 mm 3 m/s 752 mmHg 90%
    01:00 -6°C° 0 mm 3 m/s 752 mmHg 91%
    02:00 -5°C° 0 mm 3 m/s 752 mmHg 88%
    03:00 -6°C° 0 mm 3 m/s 752 mmHg 89%
    04:00 -8°C° 0 mm 4 m/s 752 mmHg 90%
    05:00 -9°C° 0 mm 4 m/s 752 mmHg 91%
    06:00 -9°C° 0 mm 4 m/s 751 mmHg 91%
    07:00 -8°C° 0 mm 4 m/s 751 mmHg 90%
    08:00 -8°C° 0 mm 4 m/s 751 mmHg 90%
    09:00 -8°C° 0 mm 5 m/s 751 mmHg 89%
    10:00 -8°C° 0 mm 5 m/s 751 mmHg 89%
    11:00 -7°C° 0 mm 5 m/s 750 mmHg 89%
    12:00 -7°C° 0 mm 5 m/s 750 mmHg 89%
    13:00 -7°C° 0 mm 5 m/s 750 mmHg 90%
    14:00 -7°C° 0 mm 5 m/s 749 mmHg 90%
    15:00 -8°C° 0 mm 5 m/s 749 mmHg 91%
    16:00 -9°C° 0 mm 4 m/s 749 mmHg 93%
    17:00 -10°C° 0 mm 4 m/s 749 mmHg 94%
    18:00 -11°C° 0 mm 4 m/s 748 mmHg 94%
    19:00 -11°C° 0 mm 4 m/s 748 mmHg 94%
    20:00 -12°C° 0 mm 4 m/s 748 mmHg 93%
    21:00 -12°C° 0 mm 4 m/s 748 mmHg 94%
    22:00 -12°C° 0 mm 4 m/s 747 mmHg 94%
    23:00 -13°C° 0 mm 3 m/s 747 mmHg 94%

    Mâine, 21 Ianuarie, Luni

    Timp Temperatura Precipitaţii Vânt Presiune Umiditate
    00:00 -12°C° 0.1 mm 3 m/s 747 mmHg 95%
    01:00 -10°C° 0.1 mm 3 m/s 747 mmHg 95%
    02:00 -10°C° 0.1 mm 3 m/s 747 mmHg 95%
    03:00 -9°C° 0 mm 3 m/s 747 mmHg 95%
    04:00 -9°C° 0 mm 3 m/s 747 mmHg 95%
    05:00 -8°C° 0 mm 3 m/s 747 mmHg 95%
    06:00 -10°C° 0 mm 3 m/s 747 mmHg 95%
    07:00 -12°C° 0 mm 3 m/s 748 mmHg 95%
    08:00 -13°C° 0 mm 3 m/s 748 mmHg 95%
    09:00 -13°C° 0 mm 3 m/s 748 mmHg 95%
    10:00 -12°C° 0 mm 4 m/s 749 mmHg 94%
    11:00 -11°C° 0 mm 4 m/s 749 mmHg 93%
    12:00 -10°C° 0 mm 3 m/s 749 mmHg 93%
    13:00 -10°C° 0 mm 3 m/s 750 mmHg 93%
    14:00 -9°C° 0 mm 3 m/s 750 mmHg 93%
    15:00 -12°C° 0 mm 3 m/s 750 mmHg 94%
    16:00 -13°C° 0 mm 3 m/s 750 mmHg 94%
    17:00 -14°C° 0 mm 3 m/s 751 mmHg 95%
    18:00 -14°C° 0 mm 3 m/s 751 mmHg 96%
    19:00 -15°C° 0 mm 3 m/s 751 mmHg 97%
    20:00 -14°C° 0 mm 2 m/s 751 mmHg 97%
    21:00 -14°C° 0 mm 2 m/s 751 mmHg 97%
    22:00 -14°C° 0 mm 2 m/s 751 mmHg 97%
    23:00 -14°C° 0 mm 2 m/s 752 mmHg 97%

    Poimâine, 22 Ianuarie, Marţi

    Timp Temperatura Precipitaţii Vânt Presiune Umiditate
    00:00 -14°C° 0 mm 2 m/s 752 mmHg 97%
    01:00 -15°C° 0 mm 2 m/s 751 mmHg 96%
    02:00 -15°C° 0 mm 2 m/s 751 mmHg 96%
    03:00 -15°C° 0 mm 2 m/s 751 mmHg 96%
    04:00 -14°C° 0 mm 2 m/s 751 mmHg 95%
    05:00 -15°C° 0 mm 3 m/s 750 mmHg 95%
    06:00 -14°C° 0.1 mm 3 m/s 750 mmHg 95%
    07:00 -14°C° 0.1 mm 3 m/s 750 mmHg 95%
    08:00 -13°C° 0.1 mm 3 m/s 750 mmHg 96%
    09:00 -12°C° 0.2 mm 4 m/s 750 mmHg 95%
    10:00 -11°C° 0.2 mm 4 m/s 750 mmHg 95%
    11:00 -10°C° 0.2 mm 4 m/s 750 mmHg 94%
    12:00 -9°C° 0.2 mm 4 m/s 750 mmHg 94%
    13:00 -8°C° 0.2 mm 4 m/s 750 mmHg 94%
    14:00 -7°C° 0.2 mm 4 m/s 749 mmHg 94%
    15:00 -7°C° 0.2 mm 4 m/s 749 mmHg 94%
    16:00 -6°C° 0.2 mm 3 m/s 749 mmHg 95%
    17:00 -6°C° 0.2 mm 3 m/s 749 mmHg 95%
    18:00 -7°C° 0.1 mm 3 m/s 749 mmHg 95%
    19:00 -7°C° 0.1 mm 3 m/s 749 mmHg 96%
    20:00 -7°C° 0.1 mm 3 m/s 750 mmHg 96%
    21:00 -8°C° 0.1 mm 3 m/s 750 mmHg 96%
    22:00 -8°C° 0.1 mm 3 m/s 750 mmHg 96%
    23:00 -8°C° 0.1 mm 3 m/s 750 mmHg 96%

    23 Ianuarie, Miercuri

    Timp Temperatura Precipitaţii Vânt Presiune Umiditate
    00:00 -9°C° 0.1 mm 3 m/s 750 mmHg 95%
    01:00 -9°C° 0.1 mm 2 m/s 750 mmHg 94%
    02:00 -10°C° 0.1 mm 2 m/s 750 mmHg 94%
    03:00 -13°C° 0 mm 2 m/s 750 mmHg 92%
    04:00 -15°C° 0 mm 2 m/s 750 mmHg 91%
    05:00 -16°C° 0 mm 2 m/s 750 mmHg 90%
    06:00 -17°C° 0 mm 2 m/s 750 mmHg 91%
    07:00 -18°C° 0 mm 3 m/s 750 mmHg 92%
    08:00 -19°C° 0 mm 3 m/s 751 mmHg 93%
    09:00 -18°C° 0 mm 3 m/s 751 mmHg 93%
    10:00 -16°C° 0 mm 3 m/s 751 mmHg 94%
    11:00 -15°C° 0 mm 3 m/s 751 mmHg 95%
    12:00 -14°C° 0 mm 3 m/s 751 mmHg 94%
    13:00 -14°C° 0 mm 4 m/s 751 mmHg 92%
    14:00 -12°C° 0 mm 4 m/s 751 mmHg 91%
    15:00 -14°C° 0 mm 4 m/s 751 mmHg 92%
    16:00 -14°C° 0 mm 3 m/s 751 mmHg 92%
    17:00 -15°C° 0 mm 3 m/s 751 mmHg 92%
    18:00 -16°C° 0 mm 4 m/s 751 mmHg 92%
    19:00 -17°C° 0 mm 4 m/s 751 mmHg 92%
    20:00 -17°C° 0 mm 4 m/s 751 mmHg 92%
    21:00 -17°C° 0 mm 4 m/s 751 mmHg 90%
    22:00 -17°C° 0 mm 4 m/s 751 mmHg 88%
    23:00 -18°C° 0 mm 4 m/s 751 mmHg 86%

    24 Ianuarie, Joi

    Timp Temperatura Precipitaţii Vânt Presiune Umiditate
    00:00 -17°C° 0 mm 4 m/s 751 mmHg 85%
    01:00 -17°C° 0 mm 4 m/s 750 mmHg 84%
    02:00 -16°C° 0 mm 4 m/s 750 mmHg 82%
    03:00 -16°C° 0 mm 4 m/s 750 mmHg 83%
    04:00 -16°C° 0 mm 4 m/s 750 mmHg 84%
    05:00 -16°C° 0 mm 4 m/s 749 mmHg 85%
    06:00 -16°C° 0.1 mm 4 m/s 749 mmHg 87%
    07:00 -15°C° 0.1 mm 4 m/s 749 mmHg 89%
    08:00 -15°C° 0.1 mm 4 m/s 749 mmHg 91%
    09:00 -14°C° 0 mm 4 m/s 749 mmHg 92%
    10:00 -14°C° 0 mm 4 m/s 749 mmHg 93%
    11:00 -14°C° 0 mm 5 m/s 749 mmHg 93%
    12:00 -11°C° 0 mm 4 m/s 748 mmHg 94%
    13:00 -10°C° 0 mm 4 m/s 748 mmHg 94%
    14:00 -8°C° 0 mm 4 m/s 748 mmHg 95%
    15:00 -8°C° 0 mm 4 m/s 748 mmHg 95%
    16:00 -8°C° 0 mm 4 m/s 747 mmHg 95%
    17:00 -8°C° 0 mm 4 m/s 747 mmHg 95%
    18:00 -8°C° 0.1 mm 4 m/s 747 mmHg 95%
    19:00 -8°C° 0.1 mm 4 m/s 747 mmHg 95%
    20:00 -8°C° 0.1 mm 4 m/s 747 mmHg 95%
    21:00 -8°C° 0.2 mm 4 m/s 747 mmHg 95%
    22:00 -8°C° 0.2 mm 4 m/s 746 mmHg 95%
    23:00 -8°C° 0.2 mm 4 m/s 746 mmHg 95%

    25 Ianuarie, Vineri

    Timp Temperatura Precipitaţii Vânt Presiune Umiditate
    00:00 -8°C° 0.1 mm 4 m/s 746 mmHg 95%
    01:00 -8°C° 0.1 mm 4 m/s 746 mmHg 95%
    02:00 -7°C° 0.1 mm 3 m/s 745 mmHg 95%
    03:00 -7°C° 0 mm 3 m/s 745 mmHg 95%
    04:00 -7°C° 0 mm 3 m/s 745 mmHg 95%
    05:00 -7°C° 0 mm 3 m/s 745 mmHg 96%
    06:00 -7°C° 0 mm 3 m/s 745 mmHg 96%
    07:00 -7°C° 0 mm 3 m/s 745 mmHg 96%
    08:00 -7°C° 0 mm 3 m/s 745 mmHg 96%
    09:00 -7°C° 0 mm 3 m/s 745 mmHg 96%
    10:00 -6°C° 0 mm 2 m/s 745 mmHg 95%
    11:00 -5°C° 0 mm 2 m/s 745 mmHg 95%
    12:00 -5°C° 0 mm 2 m/s 744 mmHg 95%
    13:00 -5°C° 0 mm 2 m/s 744 mmHg 95%
    14:00 -4°C° 0 mm 2 m/s 744 mmHg 95%
    15:00 -5°C° 0 mm 2 m/s 744 mmHg 95%
    16:00 -5°C° 0 mm 2 m/s 744 mmHg 96%
    17:00 -5°C° 0 mm 2 m/s 744 mmHg 96%
    18:00 -5°C° 0 mm 2 m/s 744 mmHg 96%
    19:00 -5°C° 0 mm 2 m/s 744 mmHg 96%
    20:00 -6°C° 0 mm 2 m/s 744 mmHg 96%
    21:00 -6°C° 0 mm 2 m/s 744 mmHg 96%
    22:00 -6°C° 0 mm 2 m/s 744 mmHg 96%
    23:00 -6°C° 0 mm 2 m/s 744 mmHg 96%
    Arată mai mult